Jaffrey, NH

12:31 AM EDT on June 29, 2017 (GMT -0400)
Jaffrey Airport-Silver Ranch

Weather History for KAFN - December, 2013

Change the Weather History Date:

Monday, December 16, 2013

  Actual Average Record
Temperature  
Mean Temperature 11 °F -  
Max Temperature 21 °F 34 °F 48 °F (1997)
Min Temperature 0 °F 18 °F 0 °F (2013)
Degree Days  
Heating Degree Days 54    
Moisture  
Dew Point 5 °F    
Average Humidity 60    
Maximum Humidity 83    
Minimum Humidity 42    
Precipitation  
Precipitation 0.00 in - - ()
Sea Level Pressure  
Sea Level Pressure 29.96 in    
Wind  
Wind Speed 7 mph (WSW)    
Max Wind Speed 16 mph    
Max Gust Speed 26 mph    
Visibility 10 miles    
Events Snow    
Averages and records for this station are not official NWS values.
T = Trace of Precipitation, MM = Missing Value Source: NWS Daily Summary

Daily Weather History Graph

Daily Weather History Graph

Search for Another Location

Airport or City:

Trip Planner

Search our weather history database for the weather conditions in past years. The results will help you decide how hot, cold, wet, or windy it might be!

Date:

Astronomy

Dec. 16, 2013 Rise Set
Actual Time 7:12 AM EST 4:15 PM EST
Civil Twilight 6:40 AM EST 4:47 PM EST
Nautical Twilight 6:04 AM EST 5:23 PM EST
Astronomical Twilight 5:30 AM EST 5:57 PM EST
Moon 4:04 PM EST (12/16) 6:17 AM EST (12/16)
Length of Visible Light 10h 07m
Length of Day
9h 02m
Full, 100% of the Moon is Illuminated
Dec 16
Full
Dec 17
Full
Dec 25
Last Quarter
Jan 1
New
Jan 7
First Quarter

Hourly Weather History & Observations

Time (EST) Temp. Windchill Dew Point Humidity Pressure Visibility Wind Dir Wind Speed Gust Speed Precip Events Conditions
12:52 AM 18.0 °F 12.7 °F 12.0 °F 78% 29.73 in 10.0 mi South 3.5 mph - N/A   Overcast
1:52 AM 19.0 °F 13.9 °F 14.0 °F 81% 29.75 in 10.0 mi SSW 3.5 mph - N/A   Overcast
2:36 AM 21.0 °F 12.4 °F 16.0 °F 81% 29.71 in 2.5 mi WSW 6.9 mph - 0.00 in Snow Light Snow
2:52 AM 21.9 °F 13.4 °F 16.0 °F 78% 29.77 in 4.0 mi Variable 6.9 mph - 0.00 in Snow Light Snow
3:52 AM 21.9 °F 14.5 °F 10.9 °F 63% 29.78 in 10.0 mi Variable 5.8 mph - 0.00 in   Overcast
4:52 AM 21.0 °F 13.4 °F 7.0 °F 55% 29.80 in 10.0 mi WSW 5.8 mph - 0.00 in   Clear
5:52 AM 19.9 °F 8.6 °F 6.1 °F 55% 29.83 in 10.0 mi West 10.4 mph 18.4 mph N/A   Clear
6:52 AM 18.0 °F 6.1 °F 6.1 °F 60% 29.87 in 10.0 mi West 10.4 mph 17.3 mph N/A   Clear
7:52 AM 17.1 °F 6.6 °F 6.1 °F 62% 29.90 in 10.0 mi WSW 8.1 mph - N/A   Clear
8:52 AM 18.0 °F 6.1 °F 6.1 °F 60% 29.94 in 10.0 mi West 10.4 mph - N/A   Clear
9:52 AM 19.0 °F 7.5 °F 5.0 °F 54% 29.96 in 10.0 mi West 10.4 mph 18.4 mph N/A   Partly Cloudy
10:52 AM 19.9 °F 7.9 °F 3.0 °F 48% 29.97 in 10.0 mi West 11.5 mph 18.4 mph N/A   Clear
11:52 AM 19.9 °F 5.7 °F 1.0 °F 44% 29.96 in 10.0 mi West 16.1 mph 23.0 mph N/A   Partly Cloudy
12:52 PM 21.0 °F 9.3 °F 1.0 °F 42% 29.96 in 10.0 mi WNW 11.5 mph 26.5 mph N/A   Partly Cloudy
1:52 PM 19.9 °F 9.3 °F 3.0 °F 48% 29.97 in 10.0 mi WSW 9.2 mph 23.0 mph N/A   Partly Cloudy
2:52 PM 19.9 °F 6.7 °F 1.0 °F 44% 30.00 in 10.0 mi West 13.8 mph 23.0 mph N/A   Scattered Clouds
3:52 PM 19.0 °F 6.1 °F 1.9 °F 47% 30.03 in 10.0 mi WSW 12.7 mph 21.9 mph N/A   Mostly Cloudy
4:52 PM 17.1 °F 7.6 °F 1.9 °F 52% 30.06 in 10.0 mi Variable 6.9 mph - N/A   Clear
5:52 PM 17.1 °F 5.0 °F 1.9 °F 52% 30.07 in 10.0 mi WSW 10.4 mph - N/A   Clear
6:52 PM 16.0 °F 6.3 °F 1.0 °F 52% 30.11 in 10.0 mi West 6.9 mph - N/A   Clear
7:52 PM 15.1 °F 6.4 °F 1.0 °F 54% 30.13 in 10.0 mi West 5.8 mph - N/A   Clear
8:52 PM 12.0 °F 2.7 °F -0.0 °F 59% 30.16 in 10.0 mi SSW 5.8 mph - N/A   Clear
9:52 PM 5.0 °F -2.1 °F -0.9 °F 76% 30.18 in 10.0 mi Variable 3.5 mph - N/A   Clear
10:52 PM 1.9 °F - -2.9 °F 80% 30.19 in 10.0 mi Calm Calm - N/A   Clear
11:52 PM -0.9 °F -8.9 °F -5.1 °F 83% 30.19 in 10.0 mi South 3.5 mph - N/A   Clear